{"data":{"norad_id":49192,"epoch":"2026-09-19T20:15:34.889184Z","epoch_age_seconds":78596,"freshness":"FRESH","line1":"1 49192U 21083G   26262.84415381 -.00000087  00000+0 -27363-3 0  9991","line2":"2 49192  87.8915 301.3993 0001943  82.1517 277.9832 13.13469236243346","mean_motion":13.13469236,"eccentricity":0.0001943,"inclination_deg":87.8915,"raan_deg":301.3993,"arg_perigee_deg":82.1517,"mean_anomaly_deg":277.9832,"bstar":-0.00027363,"rev_number":24334,"period_min":109.6333252833,"perigee_km":1208.294012307,"apogee_km":1211.242672323,"semimajor_km":7587.905342315,"source":"CELESTRAK","updated_at":"2026-09-20T09:00:44.661382Z"}}